Wind_Speed
32 29 27 26 23 20 18 16 14 12 10 6 5 4 4 4 6 8 10 12 14 17 20 22 25 27 28 30 31 31 31 31 30 29 27 25 24 23 24 26 27 26 25 24 23 23 22 22 23 24 24 25 25 25 25 26 26 27 27 28 28 28 28 27 26 28 31 34 34 35 36 35 34 33 32 32 31 31 31 30 30 30 31 30 30
31 30 27 24 21 18 16 14 11 10 8 5 4 5 5 6 8 11 13 16 18 21 23 24 27 29 31 32 33 34 34 34 34 33 31 28 26 24 25 26 28 28 27 27 26 26 25 24 24 23 24 25 26 26 26 26 26 26 27 28 29 29 29 28 26 26 28 30 32 36 36 34 33 32 31 30 29 28 27 26 26 26 27 26 27
31 29 26 22 19 17 14 12 10 8 7 5 5 5 7 9 12 14 16 19 21 24 26 27 29 31 33 34 35 36 36 36 36 35 33 30 26 25 25 26 27 28 28 28 27 27 27 27 27 26 25 25 27 28 27 27 27 27 28 29 29 30 30 28 26 26 26 27 28 29 30 33 35 32 27 25 23 23 24 23 24 24 24 24 24
30 27 23 20 17 15 13 11 9 7 6 6 7 8 11 13 15 17 20 22 24 27 29 31 32 33 34 35 36 37 37 37 36 34 31 29 28 26 25 25 25 26 27 28 28 28 27 28 28 27 27 26 27 28 28 27 27 27 28 30 30 30 30 29 28 26 26 26 23 23 24 26 28 26 27 30 27 26 26 24 24 24 24 24 25
28 24 21 18 15 14 12 9 7 5 6 8 10 12 14 16 18 20 23 26 28 30 32 34 35 36 38 38 39 39 38 37 35 33 31 30 29 28 27 27 26 26 25 25 26 27 27 27 27 27 27 26 26 28 29 30 29 28 28 30 32 32 31 31 29 27 26 25 24 24 22 18 20 25 32 35 31 27 27 26 25 25 25 25 26
24 21 19 16 14 12 10 8 6 6 8 10 11 13 15 18 21 23 26 29 30 32 34 36 38 39 41 41 40 39 38 35 33 32 32 31 31 30 29 28 27 27 26 24 24 24 25 25 26 26 26 26 26 28 30 31 32 31 29 30 32 33 34 33 32 29 28 28 27 26 24 22 26 29 29 31 33 34 32 31 30 28 27 28 28
22 19 16 14 11 9 7 7 7 8 10 11 12 15 17 20 23 26 29 31 33 35 36 38 39 39 38 37 35 34 33 32 31 31 31 31 31 31 30 29 28 27 26 24 23 23 24 25 25 26 26 26 26 27 29 31 32 32 31 31 31 32 34 37 35 32 30 30 29 27 28 28 29 29 27 29 34 37 37 35 34 32 30 30 30
19 16 13 11 9 7 7 7 7 9 10 12 14 17 20 23 26 28 31 33 35 37 38 39 38 37 35 32 31 29 30 30 31 31 31 31 32 31 32 31 29 28 27 25 24 23 24 25 25 26 27 27 27 28 29 30 31 33 32 31 30 29 32 36 37 35 34 33 31 30 30 30 29 30 30 29 30 35 40 40 38 35 33 32 31
15 13 10 9 7 6 6 6 7 9 11 14 17 20 23 26 28 31 33 36 37 38 38 36 34 32 31 29 29 28 29 30 30 31 31 31 32 32 32 32 31 29 28 27 25 23 24 26 27 28 29 29 30 30 31 31 32 33 33 31 30 29 30 32 35 37 37 36 34 32 32 32 31 32 31 30 31 34 39 40 38 37 37 36 33
11 10 9 7 6 5 5 6 8 10 13 16 19 22 25 28 31 34 36 38 38 37 35 32 30 29 28 28 28 29 29 30 30 30 30 31 31 31 31 31 31 30 29 27 25 24 25 26 26 27 28 29 30 31 32 32 32 33 33 32 32 32 31 32 34 35 37 38 37 35 35 34 33 34 33 32 32 33 36 38 38 37 40 41 37
8 7 6 5 4 4 6 8 10 13 15 18 21 25 29 32 35 37 38 37 36 33 31 29 28 27 27 28 28 29 30 30 31 31 31 31 31 31 31 31 31 31 30 28 27 27 28 27 27 27 28 28 29 30 31 32 32 33 34 34 34 34 34 34 35 36 36 38 39 39 39 37 36 37 37 35 34 35 36 37 37 36 39 42 39
5 4 4 3 3 5 8 10 13 15 18 21 25 30 33 37 38 38 37 34 32 30 29 28 28 27 28 28 29 30 30 30 30 30 30 31 32 32 32 32 32 32 31 31 31 32 33 32 31 31 30 30 30 31 31 32 33 34 35 36 37 36 36 36 37 38 37 37 39 41 42 41 40 39 38 38 37 37 36 38 38 35 37 41 40
3 2 2 3 6 8 10 12 15 18 21 25 30 35 38 39 39 36 34 31 30 30 29 28 28 28 29 29 30 30 29 29 29 29 30 31 33 34 34 34 34 34 34 34 33 34 35 35 36 36 35 35 34 35 35 35 36 36 37 38 39 38 38 38 39 40 40 40 40 41 42 43 44 42 40 40 38 37 37 39 39 35 36 40 39
2 2 3 5 7 8 11 13 17 21 26 30 34 37 39 39 36 33 31 30 30 29 29 29 29 28 29 29 29 29 28 28 28 29 31 32 33 33 34 34 34 35 36 36 36 36 36 37 37 38 38 38 37 37 38 38 38 39 40 40 41 41 41 41 42 43 43 43 42 42 43 44 45 45 44 43 40 38 39 39 39 36 36 39 39
3 4 4 5 6 8 12 16 20 25 29 33 36 38 39 37 34 32 31 30 30 29 29 29 29 29 29 28 28 27 27 27 28 30 31 33 33 33 34 34 34 34 34 35 36 36 37 37 37 38 39 39 39 39 39 39 39 40 42 42 43 43 42 43 44 45 45 46 45 44 45 45 45 46 47 45 42 40 39 39 38 36 34 36 37
3 4 4 5 7 9 13 18 23 27 31 34 36 38 39 36 33 31 30 29 29 29 29 29 29 29 28 28 27 26 26 28 30 31 32 33 34 34 35 35 35 35 35 36 36 36 37 37 37 38 38 38 39 40 41 41 40 41 42 43 44 44 44 44 44 44 45 46 46 45 45 46 46 45 46 47 44 41 40 39 39 38 36 35 34
3 3 3 5 8 11 15 20 25 29 32 33 36 38 37 34 31 30 29 28 28 29 29 29 30 30 29 28 27 27 28 30 32 33 33 33 34 35 35 36 36 37 37 38 38 38 38 38 39 38 38 38 38 39 40 40 41 41 41 42 43 42 42 43 44 44 45 45 44 44 44 45 46 45 45 46 45 41 40 40 40 40 38 36 35
3 3 3 5 9 13 17 22 26 29 32 34 37 38 34 31 29 28 28 29 29 30 30 30 31 31 30 28 28 29 30 32 33 34 35 35 35 35 36 37 37 38 38 39 39 39 39 40 40 41 40 40 40 40 40 40 40 41 41 40 40 39 36 37 39 40 42 43 43 43 43 43 44 44 44 46 45 42 41 41 41 41 40 39 39
2 2 4 7 11 16 20 24 28 30 32 35 37 35 31 29 28 27 28 29 29 30 30 31 31 31 31 29 29 30 32 33 34 35 36 36 37 37 37 38 38 38 39 39 40 40 41 41 41 41 41 41 41 40 40 40 40 40 41 40 39 37 35 36 37 37 38 39 40 42 42 42 43 43 43 45 45 43 42 42 42 42 41 41 41
2 3 6 9 14 19 23 26 28 31 34 36 35 32 29 28 28 28 29 29 30 31 31 32 32 32 32 31 31 33 34 35 36 36 37 37 38 38 39 40 40 40 40 41 41 41 41 42 42 42 42 41 41 40 40 40 40 40 40 40 39 37 37 39 40 39 38 38 38 39 41 41 41 41 43 44 45 43 43 43 43 43 42 41 42
5 6 8 12 17 22 25 27 30 33 36 37 34 31 30 29 30 30 30 31 32 32 33 33 33 33 33 33 33 34 35 36 37 37 38 38 38 39 40 41 41 41 42 42 42 42 42 42 42 42 42 42 41 40 40 40 40 40 39 39 38 37 37 39 41 42 41 39 39 39 40 41 40 40 41 43 43 44 43 43 42 41 41 40 41
7 8 11 16 20 24 26 29 33 36 38 37 34 31 31 31 31 31 32 32 33 33 34 33 33 34 34 34 34 35 36 37 37 38 38 39 39 40 40 41 42 42 42 42 43 43 43 43 43 43 43 42 42 41 40 40 40 41 40 40 38 37 37 38 39 41 41 40 40 41 41 41 40 40 42 42 43 43 41 41 41 40 41 41 41
8 10 13 19 23 26 29 33 36 38 38 36 33 31 31 31 31 32 32 33 33 34 34 34 34 33 33 34 35 35 36 37 38 38 39 40 40 41 41 42 42 43 43 43 43 43 44 44 44 44 43 43 43 42 41 41 40 40 41 40 39 37 37 36 36 38 39 38 38 40 42 42 39 38 40 40 41 41 40 41 41 41 41 41 41
10 13 17 22 25 28 32 36 38 38 37 35 33 31 31 31 32 32 32 33 33 33 33 33 34 33 33 34 35 36 37 38 38 39 40 40 40 41 41 42 43 43 43 43 43 43 44 44 44 44 44 44 44 43 43 42 41 41 40 40 39 38 36 36 35 35 35 35 35 37 40 42 41 40 40 39 39 39 40 40 41 41 41 42 41
12 16 21 24 26 30 34 36 37 37 35 33 32 31 31 32 32 32 33 33 33 33 33 33 34 34 34 34 35 37 38 38 39 39 40 40 41 41 42 42 42 43 43 43 42 42 43 43 44 44 44 44 44 44 44 43 43 42 41 40 39 38 37 36 35 34 32 31 33 36 38 39 40 42 43 43 41 40 40 40 42 42 42 42 42
15 20 23 24 28 32 34 35 36 35 33 32 32 31 32 32 32 32 32 33 33 33 33 33 33 34 34 35 36 37 38 39 39 40 41 41 41 42 42 42 42 42 42 42 42 42 42 43 43 44 44 44 44 44 44 44 44 43 42 41 39 38 37 37 37 36 35 33 34 36 38 38 39 40 42 43 43 42 41 41 42 43 42 41 42
19 23 23 24 29 32 33 35 35 33 32 31 31 31 32 32 32 32 32 33 33 33 33 33 34 34 35 36 37 37 38 39 40 41 41 42 42 42 42 42 42 42 42 42 42 42 42 42 43 43 43 43 43 43 43 43 43 43 42 41 40 39 38 38 37 38 37 37 36 37 39 41 42 43 44 43 43 42 42 41 41 41 41 41 42
21 23 22 25 30 32 34 35 34 32 31 31 31 31 32 32 32 32 32 32 33 33 33 34 34 35 35 36 37 38 39 39 40 41 42 42 42 42 42 42 42 42 41 41 42 42 42 42 42 42 42 41 41 41 41 41 42 42 41 41 40 38 37 37 37 36 37 37 37 37 38 40 42 44 45 45 45 45 44 43 43 41 41 41 41
22 23 23 27 31 33 35 34 33 32 31 31 31 32 32 32 33 33 33 33 33 33 34 34 34 35 35 36 37 38 39 39 40 41 42 42 43 43 42 42 41 41 41 41 42 42 42 43 42 41 41 40 39 39 39 39 39 40 40 40 41 40 40 40 40 39 38 38 37 37 38 39 40 40 41 42 44 44 43 43 43 42 41 41 41
23 25 25 28 32 34 35 33 32 31 31 31 32 32 33 33 33 33 33 33 33 33 33 34 34 35 35 36 37 38 38 39 40 41 42 43 43 43 42 42 41 41 41 41 42 42 42 42 42 41 40 38 37 36 35 35 35 36 38 40 41 42 42 42 42 42 41 40 39 40 40 40 39 39 39 40 41 41 42 42 43 42 42 42 42
25 27 27 30 33 34 33 32 30 31 31 31 32 32 33 33 33 33 33 33 33 33 33 34 34 35 35 36 37 38 38 39 40 41 42 43 43 43 42 42 42 42 42 42 42 42 42 41 40 39 38 36 34 33 34 34 34 34 36 38 39 41 41 41 42 42 42 42 41 41 42 42 41 39 38 37 37 37 39 40 41 41 42 42 42
27 28 30 32 34 34 32 31 30 30 31 31 32 32 32 33 33 33 33 33 32 33 33 34 34 34 35 36 37 38 39 39 40 41 42 43 43 43 42 42 42 42 42 42 42 42 41 40 38 36 34 34 35 35 35 34 34 33 33 35 38 40 41 42 42 41 42 42 41 41 41 41 40 39 37 35 34 33 34 35 36 37 39 40 40
28 30 31 33 33 33 31 29 29 30 30 30 31 32 32 33 32 32 32 32 32 32 33 34 34 34 36 36 37 39 39 40 41 42 43 43 43 43 42 42 42 41 41 41 41 41 40 38 35 33 34 36 36 36 34 33 34 34 33 33 36 39 40 40 39 39 39 39 39 38 38 36 35 35 36 35 34 31 30 31 32 32 35 37 37
29 30 32 32 33 32 29 28 29 29 30 30 30 31 32 32 31 32 32 32 32 32 33 34 34 34 35 36 38 39 40 41 42 42 43 43 43 42 41 41 41 40 40 41 40 40 39 35 32 32 36 37 36 35 35 34 34 34 33 33 34 36 38 38 37 37 37 36 35 33 32 31 30 32 34 34 33 30 28 29 30 29 31 33 34
28 29 31 32 32 30 28 28 29 29 30 30 30 31 31 31 31 31 31 31 32 33 33 34 34 35 36 37 38 40 40 41 42 42 43 43 42 42 41 40 40 39 39 40 39 39 37 32 30 33 37 38 36 36 36 35 34 33 32 32 33 35 36 36 36 35 33 32 31 29 28 28 28 30 30 29 29 28 27 28 29 29 29 30 31
28 30 31 31 30 29 28 28 29 29 30 30 31 31 31 31 31 31 32 32 32 33 34 34 35 35 36 37 38 40 41 41 42 42 42 42 42 41 40 39 39 39 39 38 37 36 34 31 31 34 37 39 37 36 37 36 34 33 32 32 33 33 34 34 34 32 30 29 28 26 25 26 26 27 27 25 25 25 25 26 28 29 29 28 29
30 31 32 31 29 28 28 28 29 29 29 30 31 31 31 32 32 31 32 32 33 33 34 35 35 36 36 37 38 39 40 41 41 42 42 42 41 41 39 38 38 39 39 38 37 35 32 30 32 34 37 41 40 37 38 37 34 33 32 31 31 32 32 32 32 31 28 27 26 25 24 24 24 24 24 22 22 23 24 24 25 26 27 27 29
31 32 31 30 28 28 27 28 29 29 29 30 30 31 31 32 32 32 33 33 34 34 35 35 36 36 36 37 37 38 39 40 41 41 41 41 41 40 39 38 37 38 38 37 36 34 30 29 32 34 37 41 42 40 40 39 35 32 30 29 30 30 31 31 30 28 26 26 25 23 22 22 21 21 21 20 20 22 23 23 22 23 24 26 29
30 30 29 28 27 27 27 27 28 28 29 30 30 30 31 32 32 33 33 34 34 35 35 36 36 36 36 36 37 38 38 39 40 40 40 40 40 40 39 37 36 36 37 36 33 32 30 29 31 34 37 40 42 41 41 40 37 33 30 28 28 28 29 30 29 27 26 25 24 21 20 20 19 19 19 20 21 21 23 23 23 23 24 26 28
29 28 27 27 27 27 28 28 28 28 29 30 30 31 31 32 33 33 34 34 35 35 36 36 36 36 36 36 37 38 38 38 39 40 40 39 39 39 38 37 36 35 35 34 31 30 31 30 31 34 36 38 41 42 41 41 39 35 32 28 27 26 27 28 28 28 27 26 23 20 19 19 19 18 19 21 22 22 22 24 25 26 27 26 25
28 27 26 26 27 27 28 28 27 28 29 30 30 31 31 32 33 33 34 34 35 35 36 36 36 36 36 36 36 37 37 38 38 38 39 38 38 38 37 36 35 35 34 32 29 29 32 32 32 34 36 38 41 41 42 42 41 38 36 31 26 25 25 26 26 26 26 26 24 22 20 19 19 19 19 20 22 21 22 24 26 28 27 24 22
27 26 26 27 28 28 28 27 27 28 28 29 30 31 31 32 33 33 34 34 34 35 35 35 35 35 35 36 36 36 36 36 37 37 38 38 37 37 36 34 34 33 32 30 28 30 34 34 33 34 35 39 41 40 41 44 44 41 39 32 24 22 21 22 23 23 23 22 21 21 21 20 20 20 21 21 21 21 21 23 25 26 23 20 19
27 26 26 27 28 29 28 27 27 27 28 29 30 31 31 32 33 33 34 34 34 34 34 35 35 35 35 36 36 35 35 35 36 36 37 37 37 36 35 34 32 32 31 29 28 32 36 37 37 36 37 40 41 39 40 44 46 46 41 32 24 19 18 18 21 21 21 20 19 18 18 18 18 20 21 22 22 21 22 23 23 23 22 19 18
27 27 27 28 29 29 28 27 27 27 28 28 29 31 32 32 33 33 33 34 34 34 34 34 34 34 35 36 36 35 34 34 35 35 36 36 36 36 35 33 31 31 30 29 29 33 38 40 40 39 39 40 41 40 40 42 47 48 42 33 28 23 17 16 17 18 18 18 19 18 17 16 17 18 19 21 21 22 22 23 23 23 23 21 20
27 27 27 28 28 28 28 28 26 26 27 27 28 30 32 32 32 32 33 33 34 34 34 34 34 35 36 36 36 36 34 34 34 34 35 35 36 37 36 34 31 30 30 30 31 35 39 41 40 39 39 39 40 40 39 41 45 47 43 36 33 28 20 15 14 15 15 15 16 16 15 14 13 14 14 17 18 19 19 21 21 22 22 21 20
27 27 27 28 28 28 28 28 27 26 27 27 27 28 30 31 31 31 32 33 34 34 35 34 34 35 36 36 37 37 35 34 33 34 34 34 35 36 36 34 32 31 30 29 32 36 38 39 39 37 36 38 40 39 38 40 44 44 42 39 36 30 24 17 12 11 12 12 12 11 11 12 12 13 14 15 17 17 16 18 19 19 20 20 20
27 27 28 28 28 28 28 28 28 27 27 27 27 27 29 30 30 31 32 33 33 34 35 34 35 35 36 36 37 37 36 35 34 34 35 34 33 34 35 34 32 32 30 29 31 36 37 36 37 36 33 35 39 38 36 39 43 42 40 39 37 31 25 20 16 13 9 7 7 7 8 10 12 13 13 14 15 15 16 18 19 19 18 20 22
27 28 28 28 28 28 28 28 28 28 28 28 28 28 28 29 30 31 32 32 33 33 34 34 34 35 35 36 36 37 37 36 35 34 35 35 33 33 35 34 32 31 29 29 31 34 34 33 34 32 31 33 36 36 36 38 40 38 35 35 36 33 27 21 19 17 13 9 8 7 7 8 9 11 13 14 14 14 13 14 16 19 19 19 20
28 28 28 27 28 28 28 28 28 28 29 29 28 28 28 29 30 30 31 32 33 33 33 33 34 34 35 35 36 36 36 36 36 35 34 34 33 32 33 34 32 29 26 26 28 30 29 29 29 27 27 31 34 34 34 34 34 34 32 29 29 31 28 22 18 15 13 10 9 9 8 7 5 3 4 8 12 14 13 12 13 17 18 17 18
28 28 28 27 27 27 28 28 28 28 29 29 28 28 28 29 29 30 30 31 33 33 33 33 33 34 35 35 35 35 35 35 36 36 36 35 33 30 29 31 32 29 25 22 23 24 24 24 24 23 22 26 30 30 28 28 30 31 29 25 23 24 24 20 16 12 10 9 11 13 14 15 14 14 12 9 4 5 9 11 13 16 16 15 16
28 28 28 28 27 27 28 28 28 28 29 29 28 27 28 28 28 29 29 30 31 33 33 33 33 33 34 34 35 35 35 35 35 36 36 37 37 34 29 28 29 30 27 23 21 21 20 20 21 21 20 22 25 25 24 26 29 29 27 23 20 19 20 17 15 12 10 10 11 12 13 14 14 15 16 16 14 12 8 4 5 10 14 14 15
Wind_Direction
124 124 122 120 116 115 115 114 116 113 107 101 93 66 33 6 346 344 349 344 337 337 338 339 338 336 336 335 333 333 332 329 328 327 324 320 314 305 297 291 288 287 287 287 288 290 293 298 302 305 307 306 306 306 307 308 309 311 311 311 310 309 307 307 308 306 301 298 297 294 290 288 287 286 284 283 283 282 280 279 276 274 273 271 270
127 125 121 120 118 118 117 116 116 110 102 89 65 46 21 2 354 353 348 341 338 339 338 337 337 335 334 332 329 327 326 325 323 323 322 318 312 302 293 287 284 284 284 285 286 287 288 288 291 294 299 302 303 304 304 304 304 307 309 309 310 309 307 309 311 309 306 305 305 301 298 294 290 288 287 284 282 280 280 279 277 274 272 271 268
126 123 119 119 119 119 117 113 109 101 94 75 54 35 10 359 354 349 342 338 338 337 336 335 335 334 331 329 326 324 323 322 320 320 318 316 312 304 296 289 284 282 282 283 284 285 286 286 286 286 287 291 296 298 298 298 299 300 303 304 306 305 304 306 308 308 308 309 308 303 305 305 299 296 293 286 282 280 278 278 276 274 271 269 267
123 120 119 120 120 117 111 107 103 95 82 55 30 9 358 353 347 342 339 337 337 336 336 334 332 329 326 324 322 321 320 319 318 317 317 318 317 313 308 301 295 289 286 284 284 284 285 285 284 283 281 282 286 290 290 291 293 294 295 297 301 301 300 302 303 305 306 308 305 298 303 306 300 301 300 293 288 284 281 279 277 275 273 271 270
121 118 118 119 116 110 105 102 94 74 50 29 11 359 352 346 341 339 338 338 337 336 333 331 328 325 323 321 320 320 320 321 322 322 323 324 322 321 319 314 308 303 297 291 286 283 283 282 282 280 279 278 280 284 286 287 289 289 289 290 294 295 296 297 297 300 303 303 298 292 295 291 287 298 303 298 294 289 284 282 279 278 276 273 271
117 114 113 112 110 108 104 92 69 45 32 18 3 352 344 340 339 339 338 337 335 333 331 329 327 326 325 325 325 326 327 328 329 328 327 326 324 323 321 317 313 309 305 300 291 284 280 278 278 279 279 279 281 282 283 284 286 286 286 285 287 289 290 290 290 295 298 296 294 292 288 284 286 294 297 296 295 293 289 285 282 280 279 277 274
111 109 109 108 107 104 91 67 43 28 20 6 349 343 339 338 338 336 336 334 333 332 331 329 328 328 328 329 330 330 329 330 329 328 327 325 323 321 318 316 314 310 307 303 295 287 281 278 277 278 280 280 282 282 281 282 284 285 284 281 281 283 284 284 286 291 292 289 291 293 290 288 289 286 283 287 293 295 293 290 287 286 284 281 277
109 107 105 100 93 81 62 40 25 12 360 345 339 339 338 336 335 335 333 332 331 330 330 329 329 329 330 330 331 331 330 328 327 326 325 323 321 320 318 316 315 312 309 304 297 290 285 282 280 279 280 280 280 280 281 281 282 283 282 280 278 279 280 281 283 285 285 285 288 289 289 289 287 284 281 281 282 285 290 292 293 293 290 286 282
103 100 94 85 74 59 38 13 360 348 341 340 340 338 336 334 333 331 330 328 329 329 328 329 330 331 332 332 331 330 329 327 326 326 324 322 321 320 319 318 317 316 313 308 303 296 289 283 282 280 280 280 280 280 281 280 280 280 279 278 276 277 278 279 279 279 279 281 283 284 285 286 285 283 281 276 273 274 281 288 293 295 293 289 287
94 90 83 73 59 39 9 343 336 336 339 339 336 333 331 330 329 329 329 329 329 330 330 331 333 334 334 333 332 331 329 327 326 325 324 323 322 321 321 321 320 319 317 315 311 302 294 289 286 284 282 282 281 281 281 280 280 279 278 277 275 274 276 277 276 275 275 276 277 278 280 280 280 280 278 277 275 272 273 281 289 293 293 292 291
93 85 76 64 46 14 344 330 330 331 331 328 327 329 330 331 332 333 332 331 331 332 333 335 337 338 337 335 334 332 331 329 328 328 327 326 325 325 324 322 321 319 317 316 312 305 301 297 292 288 285 283 282 282 281 281 280 279 279 279 277 275 274 275 276 274 273 273 273 273 274 275 276 277 278 278 277 274 271 275 282 287 289 290 291
104 90 70 43 357 335 328 323 323 323 324 327 331 332 334 335 335 334 333 332 333 335 337 338 339 338 337 336 335 334 333 332 331 331 329 329 328 326 325 324 321 319 317 316 313 310 308 305 301 296 291 287 284 282 281 280 280 279 278 278 278 278 276 276 275 273 272 272 271 271 272 273 272 273 277 277 275 276 274 272 276 279 282 286 289
120 90 15 339 327 327 327 326 329 332 334 337 337 336 336 336 334 333 334 336 337 338 338 338 338 338 337 336 335 334 333 332 332 331 329 328 327 326 326 325 323 321 319 318 316 314 312 310 307 304 301 297 292 288 284 282 280 278 276 275 275 276 277 277 276 274 273 272 271 272 272 272 270 270 273 272 271 274 272 268 272 273 275 282 287
101 40 358 343 336 334 335 338 339 339 339 339 338 336 335 335 335 336 337 338 338 338 338 337 338 339 338 337 335 334 333 332 331 329 327 326 326 326 326 325 323 321 320 318 317 315 313 310 308 307 305 303 299 295 291 287 284 280 276 274 272 271 272 274 274 274 274 272 270 270 270 270 269 268 270 268 265 267 268 268 271 270 269 276 281
66 28 9 350 339 335 337 339 339 339 338 337 335 334 334 335 337 338 339 339 337 337 338 338 339 340 339 337 335 333 332 330 328 327 327 327 327 326 325 323 321 319 317 316 315 313 312 310 308 307 306 305 303 300 298 294 290 286 282 277 274 271 270 269 270 270 271 271 270 269 268 268 268 267 268 266 263 263 266 268 268 266 266 270 273
36 16 4 339 327 332 335 336 337 336 335 333 333 334 336 337 338 338 339 338 338 339 340 340 340 340 339 338 335 334 331 329 328 328 328 327 326 325 323 322 320 318 317 316 314 313 311 310 309 308 306 305 304 302 301 298 296 292 288 284 280 276 273 269 268 269 269 269 269 269 267 266 266 266 266 265 262 262 264 266 265 263 263 266 269
8 357 337 320 322 329 334 334 335 334 332 332 335 336 336 337 338 339 339 339 341 341 341 340 339 340 340 338 336 334 332 330 329 329 328 327 326 324 323 322 321 320 319 317 316 315 314 313 311 310 308 307 305 303 302 300 298 295 292 290 286 282 278 273 271 270 268 268 269 269 267 266 265 264 265 263 261 262 263 262 263 263 261 261 264
3 354 308 310 325 327 330 333 332 332 332 334 336 336 336 338 338 340 341 341 342 341 341 341 340 340 340 339 337 335 333 332 331 330 329 328 327 326 325 324 322 322 321 319 319 318 317 315 313 311 310 309 307 306 304 302 301 298 295 293 289 285 281 277 275 274 271 269 269 268 267 267 266 264 263 261 259 261 262 261 261 262 262 260 260
330 317 301 312 326 327 330 333 331 332 334 336 337 336 337 338 339 341 342 341 341 341 341 341 341 341 340 338 337 335 333 333 332 331 330 329 328 328 326 325 324 323 323 321 320 319 317 316 314 313 311 310 309 308 307 306 304 301 298 295 292 286 277 271 270 271 272 272 271 269 267 267 267 265 263 260 258 258 260 262 262 260 260 260 260
331 294 304 317 326 331 333 333 332 335 338 337 337 337 338 339 341 342 342 340 341 342 341 341 341 341 340 338 336 335 334 333 332 331 330 329 329 328 327 326 325 325 324 323 321 320 319 318 316 315 314 312 311 310 308 307 304 302 300 297 294 289 280 272 266 264 266 268 270 270 268 267 266 264 262 260 259 258 260 262 262 259 257 258 260
319 295 307 321 328 333 333 332 335 337 338 337 337 338 339 341 342 342 342 342 342 342 342 342 341 340 339 338 336 335 333 332 331 330 329 329 328 328 327 326 326 325 324 323 322 322 321 320 318 317 316 314 313 312 310 308 305 303 302 300 296 292 286 278 271 266 263 262 264 266 267 266 264 261 260 259 258 259 259 260 258 256 256 256 257
313 304 314 327 332 333 331 333 336 336 336 336 337 339 340 342 343 342 343 343 343 343 342 341 340 339 338 336 335 333 332 331 331 330 330 329 328 328 328 327 326 326 325 325 324 323 322 320 319 318 317 316 314 313 312 310 308 306 304 302 300 297 292 286 278 271 265 262 261 261 262 264 263 260 258 258 258 258 258 258 256 255 256 255 255
313 313 321 330 330 331 332 334 336 336 335 336 338 340 341 342 342 342 343 343 342 342 341 340 339 338 336 335 334 332 332 331 331 331 331 330 330 329 329 328 327 327 327 326 325 324 323 321 320 319 317 316 315 314 313 311 309 307 305 304 302 299 296 291 284 277 271 266 263 262 260 259 261 259 258 257 257 257 257 257 257 256 256 256 256
310 318 325 330 330 332 335 335 336 336 336 336 338 340 341 342 342 342 342 341 341 340 339 338 337 336 336 335 333 333 333 333 333 332 332 331 330 330 329 329 328 327 327 326 325 324 323 321 320 319 318 317 316 314 312 310 308 307 305 303 302 299 297 291 284 281 279 271 266 265 262 259 259 259 258 258 256 256 256 256 257 257 256 257 257
313 326 331 333 333 334 335 336 336 336 336 337 338 339 341 341 342 341 341 340 339 339 338 338 337 337 336 336 335 335 335 335 334 333 332 331 331 330 330 329 328 327 326 326 325 324 322 321 319 318 317 316 315 313 311 308 307 305 304 302 300 298 296 293 286 282 281 276 268 266 264 261 259 258 258 257 257 256 256 256 256 257 256 256 255
319 332 335 334 333 334 335 336 336 335 336 336 338 339 340 340 341 341 340 338 338 338 338 338 338 338 337 337 336 336 336 335 334 333 332 332 331 331 330 330 329 328 327 326 325 323 322 320 318 317 316 315 314 312 309 307 305 303 302 300 299 297 294 291 288 282 278 274 268 265 264 263 261 259 258 257 256 257 257 256 255 255 254 254 253
325 336 336 332 333 335 335 335 334 334 335 336 337 338 339 339 339 339 338 338 338 338 338 339 338 338 338 337 337 336 336 335 334 333 333 332 332 331 331 330 330 329 327 326 325 323 321 319 317 316 315 313 312 310 308 306 304 301 299 297 296 295 291 288 287 284 278 273 267 264 262 263 263 262 261 259 258 257 257 257 255 254 252 251 250
333 340 335 331 334 335 333 333 333 333 334 335 336 337 337 338 337 337 338 337 337 337 338 338 339 339 338 337 336 336 336 335 334 333 333 332 332 332 331 331 330 329 327 326 324 322 320 319 317 316 314 313 310 309 307 306 303 300 297 295 294 294 292 289 288 286 283 278 272 268 265 265 265 264 263 262 260 258 257 256 255 253 250 248 247
337 340 334 332 334 333 331 332 332 332 333 334 336 336 336 336 336 336 337 337 337 337 338 338 339 338 338 336 336 335 334 334 334 333 333 333 333 332 332 331 330 329 327 325 323 322 320 319 318 316 314 313 311 310 308 307 306 305 301 298 297 296 295 294 293 291 288 285 281 277 275 273 272 268 265 262 259 257 255 254 253 250 247 245 243
334 335 333 331 331 330 330 331 330 331 333 334 334 335 335 335 334 335 336 337 338 337 337 339 339 338 337 336 335 334 334 334 334 334 334 333 333 332 332 331 330 328 327 325 324 322 321 320 319 317 316 315 314 313 312 312 311 305 299 294 292 291 290 289 289 289 288 286 284 282 281 280 278 275 269 263 259 256 254 252 250 247 244 242 239
331 332 330 328 329 329 329 330 330 331 332 333 333 333 333 333 334 335 336 337 337 337 337 338 338 337 337 335 334 334 334 335 335 335 334 334 333 332 331 330 329 328 327 326 324 323 322 321 320 319 319 319 319 318 318 317 312 304 295 291 289 287 287 287 287 286 286 286 285 283 281 279 278 276 273 268 263 259 254 250 246 244 243 241 238
328 327 327 328 329 329 329 329 330 330 331 332 331 331 332 333 333 334 336 336 337 337 337 337 338 337 336 335 334 334 334 335 336 335 335 334 333 332 332 331 329 328 327 326 324 324 323 323 323 322 322 323 322 322 320 316 311 307 301 295 291 289 288 287 286 286 286 286 285 283 281 278 275 273 271 269 267 263 257 249 245 243 243 242 241
322 322 326 328 329 329 328 328 328 329 330 330 329 330 330 332 333 333 335 336 336 337 337 337 338 337 336 335 335 335 336 336 337 336 335 334 333 333 333 331 329 328 327 325 325 324 324 325 326 326 326 325 324 324 322 316 310 309 307 300 294 291 289 288 286 286 285 285 284 284 282 277 273 271 268 266 265 263 257 248 242 241 242 243 244
319 322 326 328 328 327 327 327 327 328 328 327 328 328 329 330 332 332 334 336 336 337 337 337 337 337 336 336 336 336 337 337 336 335 334 334 334 334 333 331 329 328 326 325 325 326 326 328 329 329 329 328 328 328 327 320 311 307 304 300 295 293 291 289 287 285 285 284 284 284 281 275 270 267 265 263 261 258 253 246 242 241 241 240 240
321 325 328 327 326 326 326 326 326 326 326 326 327 328 328 330 331 332 334 336 336 337 337 336 337 337 337 337 337 337 337 336 335 335 334 335 335 334 333 331 329 328 327 327 327 327 328 329 330 332 332 331 332 334 331 323 315 309 303 297 294 293 292 289 287 285 283 283 285 283 276 271 267 264 262 260 256 253 249 244 241 240 239 237 235
324 326 327 325 324 325 326 326 325 326 326 326 327 328 328 329 331 333 335 336 336 336 336 336 337 338 338 339 338 337 336 336 335 334 335 336 336 335 334 332 330 329 328 328 329 329 329 330 332 334 336 336 337 340 336 327 319 313 305 298 295 294 291 290 289 287 283 280 282 279 270 266 265 262 259 256 251 248 246 242 239 238 237 237 236
323 323 322 322 322 324 325 324 324 325 325 325 326 327 328 329 332 334 335 337 336 336 336 337 338 338 338 338 338 337 336 335 335 335 335 336 337 336 335 334 332 330 329 329 330 329 330 333 335 337 340 340 341 345 342 332 323 317 309 302 297 293 290 289 288 285 281 277 277 273 266 265 265 261 258 252 244 242 242 239 236 236 236 235 235
320 319 318 319 321 323 325 324 324 325 325 325 325 327 328 329 332 335 335 336 336 336 337 337 337 337 337 337 338 337 336 335 334 335 336 337 337 336 336 336 334 331 330 330 331 331 332 335 338 342 344 342 343 346 345 337 330 324 316 309 303 296 290 288 287 284 279 275 274 269 262 263 265 260 253 245 236 234 236 235 233 233 233 233 234
316 316 317 319 322 324 325 325 325 325 325 325 325 327 328 330 332 334 335 336 336 336 336 336 336 336 336 337 338 337 336 335 335 335 337 338 338 337 337 336 335 333 331 331 332 333 334 337 341 345 346 345 345 346 346 342 338 332 323 313 307 301 294 288 286 284 279 275 274 266 255 255 260 256 247 237 230 228 232 235 236 237 236 236 235
316 318 319 320 323 325 326 326 326 326 325 325 325 327 329 330 332 334 335 336 336 336 336 335 335 335 335 336 337 337 337 336 335 335 337 339 339 339 338 337 335 333 332 331 333 336 338 340 344 346 347 348 346 344 344 346 345 340 332 319 305 298 295 290 283 280 275 272 270 263 250 246 248 247 242 236 232 230 231 233 237 238 239 241 242
319 321 320 321 323 325 326 326 326 325 325 324 325 327 329 330 332 334 335 335 336 335 335 335 335 335 335 335 337 338 337 336 335 335 336 339 341 340 339 339 337 334 333 333 335 341 344 343 345 346 348 349 346 342 344 349 350 346 342 332 310 292 294 295 287 279 275 272 268 261 251 244 241 240 240 239 238 236 233 234 236 239 243 248 249
321 322 321 322 323 323 324 325 325 325 324 324 325 327 328 330 332 334 334 335 335 335 335 336 336 335 335 335 337 338 337 336 335 336 337 340 341 341 341 341 339 336 335 335 339 346 348 346 344 344 347 349 346 343 347 352 351 350 349 341 317 291 289 296 292 283 278 276 272 265 258 253 249 245 241 239 240 240 237 237 239 243 247 248 246
321 321 321 322 321 321 323 324 325 325 324 325 326 326 328 331 332 333 333 333 334 335 336 336 336 335 336 336 337 338 338 337 336 337 339 340 341 342 343 344 342 339 337 338 344 350 350 348 345 344 347 348 345 344 349 353 353 354 355 349 332 306 288 289 291 285 279 276 275 270 265 259 255 252 248 243 242 241 238 238 239 241 244 244 241
319 320 321 321 319 319 321 323 326 325 325 326 327 326 328 331 332 332 332 333 335 336 336 337 338 337 337 337 338 339 339 338 338 338 340 341 341 342 345 346 345 343 341 342 348 351 350 348 346 344 345 346 344 344 349 353 355 355 357 357 350 334 304 284 287 291 285 278 273 270 267 263 259 256 253 249 246 244 239 237 237 237 240 243 240
318 319 319 319 318 318 320 323 325 325 324 326 328 326 327 329 330 331 332 333 335 336 337 338 338 338 339 339 338 340 340 339 340 340 341 342 342 343 346 349 347 346 346 346 347 349 348 345 343 341 342 344 344 343 346 353 356 354 354 360 0 351 332 304 288 290 292 287 279 275 274 275 270 263 256 251 248 246 241 236 235 234 234 237 237
317 317 317 317 317 318 319 321 324 325 324 326 328 327 326 327 329 331 332 334 335 335 336 338 338 339 340 340 339 340 340 340 342 341 341 344 344 344 347 351 350 349 349 347 345 346 346 343 340 339 341 343 344 343 345 353 356 351 350 358 3 2 357 346 322 302 294 286 282 281 280 281 278 271 266 257 250 246 242 238 236 233 231 232 233
316 317 317 317 317 318 319 321 323 324 324 326 329 328 326 326 329 331 332 333 334 334 335 337 338 339 340 341 341 341 341 341 343 342 342 344 346 345 347 351 353 350 347 346 344 342 342 341 338 338 340 342 343 344 347 352 353 349 347 354 359 2 6 8 4 360 347 314 298 292 282 277 272 265 260 256 252 250 249 246 239 230 226 227 227
316 316 317 317 317 317 318 320 322 323 325 327 328 328 326 326 329 331 331 331 332 333 334 336 338 339 340 341 341 342 341 341 343 343 342 344 347 347 347 350 353 351 344 339 337 336 338 340 338 337 341 344 343 344 348 350 348 346 347 353 356 355 357 360 359 0 359 343 328 322 305 290 278 262 250 246 245 244 244 245 236 226 222 222 221
315 315 315 315 316 316 318 320 322 323 324 326 328 327 326 327 328 329 330 330 330 331 334 336 337 338 339 340 341 342 342 342 342 343 342 343 346 348 347 347 350 352 348 340 336 335 336 339 338 337 345 348 344 341 344 344 341 340 344 353 356 354 354 357 356 349 345 344 354 10 20 22 15 341 264 241 236 233 232 232 227 221 221 221 218
314 313 313 315 315 316 318 319 321 322 322 324 327 327 325 325 326 327 328 328 329 330 333 336 337 338 338 339 340 341 342 342 342 343 342 342 344 347 349 347 345 349 354 350 342 337 336 337 336 334 340 348 345 339 338 339 338 337 339 347 352 350 350 357 1 357 359 17 39 52 56 58 59 60 62 68 100 199 221 227 225 220 218 218 218
315 313 313 315 316 317 318 319 320 321 321 323 325 325 323 323 325 326 327 327 328 330 332 335 336 336 337 338 338 339 341 341 342 343 343 342 342 343 348 350 347 347 351 352 347 340 336 336 335 332 335 343 345 341 339 341 341 338 338 344 349 346 344 348 350 349 3 32 47 52 53 52 54 58 61 62 67 74 84 112 180 203 209 215 220
Height
1527 1529 1530 1530 1530 1531 1531 1531 1531 1531 1532 1532 1532 1532 1532 1532 1532 1532 1531 1530 1529 1528 1526 1525 1523 1521 1520 1519 1517 1517 1516 1514 1514 1513 1512 1511 1509 1508 1506 1505 1503 1502 1501 1500 1498 1497 1497 1496 1496 1496 1495 1494 1492 1492 1491 1490 1489 1487 1486 1485 1483 1482 1481 1481 1480 1477 1474 1471 1470 1469 1468 1469 1468 1467 1467 1467 1467 1466 1465 1465 1465 1465 1465 1466 1466
1528 1529 1530 1531 1530 1531 1531 1532 1532 1532 1532 1532 1532 1532 1532 1532 1532 1531 1530 1529 1527 1526 1525 1524 1522 1520 1518 1517 1515 1514 1513 1511 1510 1509 1508 1507 1505 1504 1502 1501 1499 1498 1497 1496 1495 1494 1493 1493 1492 1492 1492 1491 1489 1489 1488 1487 1486 1485 1484 1482 1481 1479 1478 1478 1478 1475 1472 1470 1468 1464 1462 1463 1464 1464 1464 1463 1463 1462 1462 1462 1462 1462 1462 1462 1462
1529 1530 1531 1531 1531 1532 1532 1532 1532 1532 1532 1532 1532 1532 1532 1531 1530 1529 1528 1527 1526 1525 1523 1522 1521 1519 1517 1515 1513 1511 1510 1509 1507 1506 1504 1502 1501 1500 1498 1497 1495 1494 1494 1493 1492 1491 1490 1489 1489 1488 1488 1487 1486 1485 1484 1484 1483 1483 1481 1480 1478 1477 1475 1475 1476 1473 1471 1470 1468 1463 1460 1459 1457 1459 1460 1460 1460 1460 1459 1459 1459 1459 1459 1459 1459
1529 1530 1531 1531 1531 1532 1533 1532 1533 1533 1532 1532 1532 1532 1531 1530 1529 1528 1527 1526 1524 1523 1521 1520 1518 1517 1516 1514 1512 1510 1508 1506 1504 1502 1500 1498 1496 1495 1494 1493 1491 1490 1490 1489 1488 1487 1487 1486 1485 1484 1484 1483 1482 1480 1480 1480 1479 1479 1479 1477 1476 1474 1473 1472 1472 1472 1470 1469 1467 1464 1462 1460 1455 1455 1455 1455 1456 1457 1456 1456 1456 1456 1456 1456 1455
1529 1530 1531 1532 1532 1532 1533 1533 1533 1533 1532 1532 1532 1531 1530 1529 1528 1527 1526 1524 1522 1521 1519 1517 1515 1514 1512 1510 1508 1506 1504 1502 1499 1497 1495 1493 1491 1490 1489 1488 1487 1486 1485 1485 1484 1483 1482 1482 1481 1480 1479 1479 1478 1476 1476 1476 1476 1475 1475 1474 1473 1471 1470 1469 1468 1469 1468 1467 1466 1463 1462 1460 1456 1455 1452 1448 1450 1453 1452 1453 1453 1453 1453 1453 1453
1530 1531 1532 1532 1533 1533 1533 1533 1533 1533 1532 1532 1531 1530 1530 1528 1527 1526 1524 1522 1521 1519 1517 1515 1513 1510 1507 1504 1501 1499 1497 1495 1494 1492 1490 1489 1487 1486 1485 1485 1483 1482 1481 1481 1480 1479 1478 1478 1477 1476 1475 1474 1474 1473 1472 1472 1472 1471 1471 1470 1469 1468 1467 1465 1464 1466 1465 1463 1462 1462 1461 1459 1456 1456 1454 1447 1444 1446 1448 1448 1449 1450 1450 1450 1450
1531 1532 1533 1533 1534 1533 1533 1533 1533 1533 1532 1532 1531 1530 1529 1527 1526 1524 1522 1521 1519 1517 1515 1513 1510 1508 1505 1502 1499 1497 1494 1493 1492 1490 1488 1486 1484 1483 1482 1481 1480 1479 1478 1478 1477 1476 1475 1474 1473 1472 1471 1470 1470 1469 1468 1467 1467 1467 1467 1466 1464 1464 1464 1461 1460 1462 1462 1459 1459 1458 1457 1456 1455 1454 1453 1449 1443 1440 1441 1443 1444 1446 1446 1446 1446
1532 1533 1533 1533 1534 1533 1533 1533 1533 1532 1532 1531 1530 1529 1528 1526 1525 1523 1521 1520 1518 1516 1514 1511 1508 1505 1503 1500 1498 1496 1493 1491 1490 1488 1486 1484 1482 1480 1479 1477 1477 1476 1475 1474 1474 1473 1472 1470 1469 1468 1467 1466 1465 1464 1463 1463 1462 1462 1462 1461 1460 1460 1459 1457 1457 1458 1457 1456 1456 1455 1453 1452 1452 1451 1450 1449 1445 1439 1436 1437 1439 1440 1441 1441 1441
1533 1533 1533 1534 1534 1533 1533 1533 1532 1532 1531 1530 1529 1528 1527 1525 1524 1523 1520 1518 1516 1514 1512 1510 1507 1504 1501 1499 1496 1494 1492 1490 1488 1486 1484 1482 1480 1478 1476 1474 1473 1473 1472 1470 1470 1469 1467 1466 1465 1464 1463 1462 1461 1460 1459 1458 1458 1457 1457 1456 1455 1454 1454 1453 1452 1452 1452 1452 1452 1451 1449 1448 1448 1447 1446 1446 1444 1440 1434 1434 1435 1435 1434 1435 1437
1534 1534 1534 1534 1534 1534 1533 1533 1532 1531 1531 1530 1528 1527 1526 1524 1523 1521 1519 1516 1515 1512 1510 1507 1505 1502 1500 1497 1494 1492 1490 1488 1486 1484 1482 1479 1477 1475 1473 1472 1470 1469 1468 1467 1466 1464 1462 1461 1461 1460 1459 1458 1457 1456 1455 1454 1453 1452 1451 1451 1450 1449 1449 1448 1447 1446 1447 1447 1447 1447 1445 1445 1444 1442 1441 1441 1440 1438 1433 1431 1433 1432 1429 1428 1430
1535 1534 1534 1534 1534 1534 1533 1532 1532 1531 1530 1529 1527 1526 1524 1523 1521 1519 1517 1515 1512 1510 1507 1505 1503 1500 1498 1495 1492 1490 1487 1485 1483 1481 1479 1476 1475 1473 1471 1470 1468 1466 1465 1464 1462 1460 1459 1458 1457 1456 1455 1454 1453 1452 1451 1450 1449 1448 1447 1446 1445 1444 1444 1443 1442 1441 1441 1441 1441 1442 1440 1440 1440 1437 1437 1437 1436 1434 1431 1429 1429 1430 1426 1423 1424
1535 1535 1535 1535 1534 1533 1532 1532 1531 1530 1529 1528 1526 1525 1523 1521 1519 1517 1515 1513 1510 1507 1505 1503 1500 1498 1495 1493 1491 1488 1486 1483 1481 1478 1476 1474 1472 1471 1469 1467 1466 1464 1462 1461 1459 1457 1455 1454 1453 1452 1451 1450 1449 1447 1446 1445 1444 1443 1442 1441 1440 1439 1439 1438 1436 1435 1435 1435 1434 1435 1435 1435 1434 1433 1433 1433 1431 1429 1428 1426 1425 1427 1425 1420 1421
1536 1535 1535 1535 1534 1533 1532 1531 1530 1529 1528 1527 1525 1523 1521 1520 1517 1515 1513 1510 1507 1505 1502 1500 1498 1495 1493 1491 1489 1486 1484 1482 1480 1477 1475 1473 1471 1469 1467 1465 1462 1460 1458 1457 1455 1453 1451 1449 1448 1446 1445 1444 1443 1442 1441 1440 1439 1438 1437 1436 1435 1434 1433 1432 1431 1430 1430 1429 1428 1429 1429 1428 1428 1429 1429 1428 1427 1426 1425 1422 1421 1424 1422 1418 1418
1536 1535 1535 1534 1533 1533 1532 1531 1529 1528 1527 1526 1524 1522 1520 1518 1516 1513 1511 1508 1505 1503 1500 1498 1496 1494 1492 1490 1487 1485 1482 1480 1478 1476 1474 1472 1470 1467 1465 1462 1459 1457 1455 1453 1451 1449 1447 1446 1444 1442 1440 1439 1438 1436 1435 1434 1433 1432 1430 1429 1428 1428 1428 1427 1425 1424 1423 1423 1423 1422 1422 1421 1421 1423 1424 1423 1422 1421 1420 1418 1418 1419 1418 1415 1414
1536 1535 1534 1534 1533 1532 1531 1530 1529 1527 1526 1524 1522 1520 1518 1516 1513 1511 1508 1505 1503 1501 1498 1496 1494 1493 1491 1488 1486 1483 1481 1479 1477 1475 1473 1470 1467 1465 1462 1460 1457 1454 1452 1450 1448 1445 1443 1442 1440 1438 1436 1434 1432 1431 1429 1427 1427 1425 1423 1422 1421 1421 1421 1420 1419 1418 1417 1416 1417 1416 1415 1415 1414 1416 1417 1417 1417 1416 1415 1415 1415 1415 1414 1412 1410
1536 1535 1534 1533 1533 1532 1531 1529 1528 1527 1525 1523 1521 1519 1517 1514 1511 1509 1506 1504 1502 1499 1497 1495 1493 1491 1489 1486 1484 1481 1479 1477 1475 1473 1470 1468 1465 1462 1459 1457 1454 1451 1449 1447 1444 1442 1440 1437 1435 1434 1432 1429 1427 1425 1423 1421 1420 1418 1416 1415 1414 1414 1414 1413 1412 1412 1411 1410 1410 1410 1409 1408 1408 1409 1410 1410 1411 1411 1411 1411 1411 1411 1410 1408 1406
1536 1535 1534 1533 1532 1531 1530 1528 1527 1525 1524 1522 1520 1517 1515 1512 1509 1507 1505 1503 1500 1498 1495 1493 1491 1488 1486 1484 1481 1479 1477 1474 1472 1469 1467 1465 1462 1459 1456 1453 1451 1448 1445 1443 1440 1438 1435 1432 1430 1428 1426 1425 1422 1420 1418 1416 1414 1412 1410 1408 1407 1407 1407 1405 1405 1405 1404 1404 1403 1403 1402 1401 1402 1403 1403 1404 1405 1405 1405 1406 1406 1406 1406 1404 1402
1535 1534 1533 1532 1531 1530 1529 1528 1526 1524 1523 1520 1518 1516 1513 1510 1508 1505 1503 1500 1498 1495 1493 1490 1488 1485 1483 1481 1479 1476 1474 1471 1469 1466 1464 1461 1458 1456 1453 1450 1447 1445 1442 1439 1435 1433 1430 1428 1425 1423 1421 1419 1417 1415 1413 1410 1408 1406 1404 1403 1401 1401 1400 1399 1398 1398 1397 1397 1397 1396 1396 1395 1395 1396 1397 1398 1399 1399 1399 1400 1400 1401 1401 1400 1398
1534 1533 1532 1531 1530 1529 1527 1526 1524 1523 1521 1519 1517 1514 1511 1509 1506 1504 1501 1498 1496 1493 1490 1488 1486 1483 1480 1478 1476 1473 1471 1468 1466 1463 1460 1457 1454 1452 1449 1446 1443 1441 1437 1434 1431 1429 1426 1423 1421 1418 1416 1414 1412 1410 1408 1405 1403 1400 1398 1397 1396 1395 1394 1392 1392 1392 1391 1391 1390 1390 1389 1389 1389 1390 1390 1391 1392 1393 1393 1394 1394 1395 1395 1394 1394
1534 1532 1531 1530 1529 1527 1526 1525 1523 1521 1519 1516 1515 1512 1509 1507 1504 1501 1499 1496 1494 1491 1488 1485 1483 1480 1478 1475 1473 1470 1467 1465 1462 1459 1456 1453 1451 1448 1445 1442 1439 1436 1433 1430 1427 1424 1421 1418 1416 1413 1411 1409 1407 1405 1403 1400 1397 1395 1393 1391 1389 1389 1387 1385 1385 1385 1385 1386 1385 1384 1383 1383 1384 1384 1384 1385 1385 1387 1387 1388 1388 1388 1389 1389 1389
1533 1531 1530 1529 1528 1527 1525 1524 1521 1519 1517 1514 1512 1509 1507 1504 1501 1499 1496 1493 1491 1488 1485 1483 1480 1477 1475 1472 1469 1467 1464 1462 1459 1456 1453 1450 1447 1444 1441 1438 1435 1432 1429 1426 1423 1420 1417 1414 1411 1409 1406 1404 1401 1399 1397 1394 1392 1389 1387 1385 1384 1382 1381 1379 1378 1377 1378 1379 1379 1378 1377 1377 1379 1378 1378 1378 1379 1380 1381 1381 1382 1382 1382 1383 1384
1532 1530 1529 1528 1527 1526 1524 1522 1519 1517 1514 1512 1510 1507 1504 1502 1499 1496 1494 1491 1488 1485 1483 1480 1477 1475 1472 1469 1467 1464 1461 1459 1456 1453 1450 1447 1444 1441 1438 1434 1431 1428 1425 1422 1418 1415 1413 1409 1406 1404 1401 1399 1396 1394 1392 1389 1386 1383 1381 1380 1378 1376 1374 1372 1371 1370 1370 1372 1372 1372 1371 1372 1373 1373 1372 1372 1373 1373 1374 1374 1375 1376 1376 1377 1378
1531 1530 1529 1527 1526 1524 1522 1520 1517 1514 1512 1509 1507 1505 1502 1500 1497 1494 1491 1489 1486 1483 1480 1477 1475 1472 1469 1467 1464 1461 1458 1456 1453 1449 1446 1443 1440 1437 1434 1430 1427 1424 1420 1417 1414 1411 1408 1405 1402 1399 1396 1394 1391 1389 1386 1384 1381 1379 1376 1374 1373 1371 1369 1367 1365 1363 1363 1364 1365 1365 1365 1366 1367 1366 1366 1366 1367 1367 1368 1368 1368 1370 1370 1371 1373
1530 1529 1528 1526 1524 1522 1520 1518 1515 1513 1510 1507 1505 1502 1500 1498 1495 1492 1490 1487 1484 1481 1478 1476 1472 1470 1467 1464 1461 1458 1455 1452 1449 1446 1442 1440 1437 1433 1430 1427 1423 1420 1416 1413 1410 1407 1404 1400 1397 1395 1392 1389 1386 1383 1381 1378 1376 1374 1371 1369 1367 1366 1364 1362 1360 1358 1357 1358 1359 1359 1358 1360 1361 1360 1359 1360 1361 1361 1362 1362 1362 1363 1364 1365 1367
1529 1528 1526 1524 1523 1521 1518 1516 1513 1511 1508 1505 1503 1500 1498 1496 1493 1490 1487 1485 1482 1479 1476 1473 1470 1467 1464 1461 1458 1454 1451 1448 1445 1442 1439 1436 1433 1430 1427 1423 1420 1416 1413 1410 1407 1404 1400 1397 1394 1391 1387 1384 1382 1379 1376 1373 1371 1369 1367 1364 1362 1360 1359 1357 1355 1354 1353 1353 1353 1353 1353 1354 1354 1354 1353 1354 1355 1355 1356 1357 1357 1357 1358 1359 1361
1527 1526 1525 1523 1522 1519 1517 1514 1511 1509 1506 1503 1501 1498 1496 1494 1491 1489 1486 1483 1480 1477 1474 1471 1467 1464 1461 1457 1454 1451 1448 1445 1442 1439 1436 1432 1429 1426 1423 1419 1416 1412 1409 1406 1403 1400 1397 1393 1390 1387 1383 1380 1377 1374 1371 1368 1366 1364 1361 1359 1357 1355 1354 1352 1350 1349 1348 1348 1348 1347 1347 1347 1348 1347 1347 1347 1348 1349 1350 1350 1351 1351 1353 1354 1355
1526 1525 1523 1521 1520 1517 1514 1512 1509 1506 1504 1501 1499 1496 1494 1491 1489 1487 1484 1481 1478 1475 1472 1468 1465 1461 1458 1454 1451 1448 1445 1442 1439 1435 1432 1429 1425 1422 1419 1416 1412 1409 1405 1402 1399 1396 1392 1389 1386 1383 1379 1376 1373 1369 1366 1363 1361 1358 1356 1354 1352 1350 1348 1346 1345 1343 1342 1342 1341 1341 1341 1341 1341 1341 1340 1341 1342 1343 1344 1344 1345 1346 1347 1349 1349
1525 1523 1521 1519 1517 1514 1512 1509 1506 1504 1501 1499 1497 1494 1492 1489 1487 1484 1482 1479 1476 1472 1469 1466 1462 1458 1455 1451 1448 1445 1442 1439 1435 1432 1429 1425 1422 1419 1415 1412 1409 1405 1402 1398 1395 1391 1388 1385 1382 1378 1375 1372 1368 1365 1362 1359 1356 1353 1351 1348 1346 1345 1343 1340 1339 1337 1336 1335 1335 1335 1334 1334 1334 1334 1334 1335 1336 1337 1337 1337 1338 1340 1342 1343 1343
1523 1521 1520 1517 1514 1512 1509 1506 1504 1501 1498 1496 1494 1491 1489 1487 1484 1482 1479 1476 1473 1469 1466 1462 1459 1456 1452 1449 1446 1443 1440 1436 1433 1429 1425 1422 1418 1415 1412 1409 1405 1402 1398 1395 1391 1388 1384 1380 1377 1374 1371 1367 1364 1360 1357 1354 1351 1348 1345 1342 1340 1338 1336 1334 1332 1331 1330 1329 1329 1328 1328 1327 1328 1327 1328 1328 1329 1330 1331 1331 1331 1334 1336 1337 1338
1521 1520 1518 1515 1513 1511 1507 1504 1502 1499 1496 1493 1491 1489 1487 1484 1482 1479 1477 1474 1470 1467 1463 1460 1456 1453 1450 1447 1443 1440 1437 1434 1430 1426 1423 1419 1415 1412 1408 1405 1401 1398 1394 1391 1387 1383 1380 1376 1372 1368 1365 1362 1359 1356 1353 1350 1348 1345 1342 1339 1336 1334 1332 1330 1328 1326 1325 1324 1323 1322 1321 1321 1321 1321 1321 1321 1322 1323 1324 1324 1325 1327 1329 1330 1332
1520 1518 1516 1513 1511 1508 1505 1502 1499 1496 1494 1491 1489 1487 1484 1482 1480 1477 1474 1471 1468 1464 1461 1457 1454 1451 1448 1444 1441 1438 1435 1431 1428 1424 1420 1416 1412 1409 1405 1401 1397 1393 1390 1386 1382 1379 1375 1372 1368 1364 1360 1357 1354 1352 1349 1346 1344 1342 1340 1336 1333 1330 1328 1326 1324 1321 1320 1319 1318 1317 1316 1315 1314 1314 1314 1315 1315 1316 1317 1318 1318 1320 1322 1324 1326
1518 1515 1513 1511 1508 1505 1503 1500 1497 1494 1492 1489 1487 1484 1482 1480 1477 1474 1471 1468 1465 1462 1458 1455 1452 1449 1445 1442 1438 1435 1432 1428 1425 1421 1417 1413 1409 1405 1401 1397 1393 1389 1385 1382 1378 1375 1371 1368 1364 1360 1356 1353 1350 1348 1345 1342 1338 1336 1334 1331 1328 1325 1323 1321 1319 1317 1315 1313 1312 1311 1310 1309 1308 1308 1308 1308 1309 1310 1310 1311 1313 1314 1316 1318 1319
1516 1514 1511 1509 1506 1503 1501 1498 1495 1492 1490 1487 1485 1482 1480 1477 1475 1472 1469 1466 1463 1460 1456 1453 1450 1446 1443 1439 1435 1432 1428 1425 1421 1417 1413 1410 1405 1401 1398 1394 1389 1386 1382 1378 1375 1371 1367 1364 1360 1357 1353 1350 1347 1343 1340 1336 1333 1331 1329 1326 1323 1320 1317 1315 1313 1312 1310 1309 1307 1305 1304 1303 1302 1302 1302 1303 1303 1304 1305 1306 1307 1309 1311 1312 1314
1514 1511 1509 1506 1504 1501 1499 1496 1493 1491 1488 1486 1483 1481 1478 1476 1473 1470 1467 1464 1460 1457 1454 1450 1447 1444 1441 1437 1433 1429 1425 1421 1418 1414 1410 1407 1403 1398 1395 1391 1386 1383 1379 1375 1371 1367 1364 1361 1357 1354 1350 1346 1343 1339 1335 1331 1328 1325 1323 1321 1318 1315 1312 1310 1308 1306 1305 1303 1302 1300 1298 1297 1297 1297 1297 1297 1298 1299 1300 1302 1303 1304 1306 1308 1310
1511 1509 1506 1504 1502 1499 1497 1494 1491 1488 1486 1483 1481 1479 1476 1473 1471 1468 1464 1461 1458 1455 1452 1448 1445 1442 1438 1434 1429 1425 1422 1418 1415 1411 1407 1404 1400 1396 1392 1388 1384 1380 1376 1371 1368 1364 1360 1357 1354 1351 1347 1342 1339 1335 1330 1326 1323 1320 1318 1316 1312 1309 1307 1304 1302 1301 1300 1299 1297 1296 1294 1293 1292 1292 1292 1293 1294 1295 1296 1298 1299 1300 1302 1304 1306
1509 1506 1504 1502 1499 1497 1494 1491 1489 1486 1483 1481 1478 1476 1473 1470 1468 1465 1462 1459 1455 1452 1449 1446 1442 1439 1435 1431 1427 1423 1419 1416 1412 1408 1404 1401 1397 1393 1389 1384 1380 1376 1373 1369 1365 1361 1357 1354 1351 1348 1344 1339 1334 1331 1326 1322 1319 1316 1313 1310 1307 1304 1301 1299 1297 1296 1295 1294 1293 1292 1290 1289 1288 1288 1288 1289 1290 1291 1292 1294 1295 1297 1298 1300 1302
1507 1504 1502 1500 1497 1495 1492 1489 1487 1484 1481 1478 1476 1473 1470 1467 1465 1462 1459 1456 1453 1449 1446 1443 1439 1436 1432 1429 1425 1421 1417 1413 1409 1405 1401 1398 1394 1390 1386 1382 1377 1372 1368 1365 1361 1358 1355 1352 1348 1344 1340 1335 1330 1326 1322 1318 1315 1312 1308 1305 1302 1299 1296 1294 1292 1291 1290 1289 1288 1288 1286 1285 1284 1284 1285 1286 1287 1288 1289 1290 1292 1293 1295 1297 1298
1505 1502 1500 1498 1495 1493 1490 1487 1484 1482 1479 1476 1473 1471 1468 1464 1462 1459 1456 1453 1450 1447 1443 1440 1437 1434 1430 1427 1423 1419 1415 1411 1407 1403 1399 1395 1391 1387 1383 1379 1374 1369 1365 1362 1358 1354 1351 1349 1345 1341 1337 1332 1327 1323 1319 1315 1311 1308 1305 1301 1297 1294 1291 1289 1287 1286 1285 1285 1284 1284 1283 1282 1281 1281 1281 1283 1284 1285 1286 1287 1289 1290 1292 1293 1295
1503 1500 1497 1495 1493 1490 1488 1485 1482 1479 1476 1473 1470 1468 1465 1462 1459 1456 1453 1450 1447 1444 1440 1437 1434 1431 1428 1424 1421 1417 1413 1408 1404 1400 1396 1392 1388 1384 1380 1376 1372 1367 1362 1359 1356 1352 1348 1345 1342 1338 1334 1330 1325 1320 1316 1312 1308 1304 1301 1297 1293 1290 1287 1284 1283 1281 1281 1280 1280 1280 1279 1279 1278 1278 1279 1279 1281 1282 1283 1284 1286 1287 1288 1289 1291
1500 1498 1495 1492 1490 1487 1485 1482 1479 1476 1473 1470 1467 1465 1462 1459 1456 1453 1450 1447 1444 1441 1438 1435 1432 1428 1425 1422 1418 1415 1410 1406 1402 1397 1394 1390 1386 1381 1377 1373 1369 1365 1360 1356 1354 1350 1346 1342 1339 1335 1331 1328 1323 1319 1314 1310 1305 1301 1296 1293 1289 1286 1282 1280 1278 1277 1276 1276 1277 1276 1276 1276 1275 1276 1276 1277 1278 1279 1280 1281 1282 1284 1285 1286 1288
1497 1494 1492 1489 1487 1485 1482 1480 1477 1474 1471 1468 1465 1462 1459 1456 1453 1451 1448 1445 1441 1438 1435 1432 1429 1426 1422 1419 1416 1413 1408 1404 1400 1395 1392 1388 1384 1380 1375 1370 1366 1362 1358 1354 1351 1348 1343 1339 1336 1333 1329 1325 1322 1318 1313 1308 1303 1298 1292 1288 1284 1281 1279 1276 1274 1273 1273 1272 1273 1273 1273 1273 1273 1273 1274 1275 1275 1276 1278 1279 1279 1280 1281 1283 1285
1494 1491 1489 1486 1484 1482 1480 1477 1475 1472 1469 1465 1462 1459 1456 1454 1451 1448 1445 1442 1439 1436 1433 1430 1426 1423 1420 1417 1414 1411 1407 1403 1398 1394 1390 1386 1382 1378 1374 1369 1365 1360 1356 1352 1349 1345 1341 1337 1333 1330 1327 1323 1319 1316 1311 1306 1301 1295 1289 1283 1279 1277 1275 1273 1271 1270 1269 1269 1269 1270 1270 1271 1271 1271 1271 1272 1273 1274 1275 1276 1276 1277 1279 1281 1282
1491 1488 1486 1484 1481 1479 1477 1475 1472 1469 1466 1463 1459 1456 1454 1451 1448 1445 1442 1440 1437 1434 1430 1427 1424 1421 1418 1414 1411 1408 1405 1401 1397 1392 1388 1384 1380 1376 1372 1368 1363 1358 1354 1350 1347 1343 1339 1335 1331 1327 1323 1321 1318 1313 1309 1305 1299 1293 1286 1281 1276 1274 1273 1271 1269 1267 1267 1266 1266 1267 1267 1268 1268 1268 1269 1269 1270 1271 1272 1273 1274 1275 1276 1278 1279
1488 1486 1483 1481 1478 1476 1474 1472 1469 1467 1463 1461 1457 1453 1451 1448 1445 1443 1440 1437 1434 1431 1428 1425 1421 1418 1415 1411 1408 1406 1402 1399 1394 1390 1386 1382 1378 1374 1370 1366 1362 1357 1353 1349 1346 1342 1339 1335 1330 1326 1321 1319 1316 1312 1308 1304 1298 1293 1287 1281 1276 1273 1271 1269 1268 1266 1265 1264 1264 1264 1265 1265 1265 1265 1266 1266 1267 1268 1269 1270 1271 1273 1274 1275 1277
1486 1483 1481 1479 1476 1473 1471 1469 1467 1464 1461 1458 1456 1452 1448 1446 1443 1440 1437 1434 1431 1428 1425 1422 1419 1415 1412 1408 1405 1402 1400 1396 1392 1388 1384 1380 1376 1371 1368 1364 1360 1356 1352 1348 1345 1342 1339 1335 1331 1327 1322 1318 1315 1311 1307 1303 1298 1293 1288 1283 1278 1273 1269 1267 1266 1265 1264 1263 1263 1262 1263 1263 1263 1263 1263 1264 1264 1265 1266 1267 1268 1270 1271 1272 1274
1483 1481 1479 1476 1473 1471 1468 1466 1464 1462 1459 1456 1454 1450 1446 1443 1441 1438 1435 1431 1428 1425 1422 1419 1416 1412 1409 1406 1402 1399 1396 1393 1390 1386 1382 1379 1374 1370 1366 1362 1358 1354 1350 1347 1344 1341 1339 1335 1331 1327 1322 1318 1315 1311 1307 1303 1299 1295 1290 1285 1279 1274 1270 1266 1265 1264 1263 1263 1262 1262 1262 1262 1261 1261 1261 1262 1262 1263 1263 1264 1265 1267 1268 1269 1270
1480 1478 1476 1473 1470 1468 1465 1463 1461 1459 1456 1453 1451 1448 1445 1441 1438 1435 1432 1429 1426 1423 1420 1417 1413 1410 1407 1403 1400 1396 1393 1390 1387 1384 1380 1377 1374 1369 1365 1361 1357 1353 1349 1347 1344 1341 1339 1336 1332 1327 1322 1318 1314 1311 1307 1303 1300 1296 1292 1286 1281 1277 1272 1269 1267 1265 1263 1263 1262 1262 1261 1260 1260 1259 1259 1259 1260 1260 1261 1262 1263 1264 1265 1266 1267
1478 1475 1473 1470 1468 1465 1462 1460 1458 1455 1453 1450 1448 1445 1442 1439 1436 1433 1429 1426 1424 1421 1418 1414 1411 1407 1404 1401 1398 1394 1390 1387 1384 1381 1378 1374 1371 1368 1363 1360 1357 1354 1349 1347 1345 1342 1339 1336 1332 1327 1323 1318 1314 1310 1307 1305 1302 1298 1293 1289 1284 1279 1275 1272 1269 1267 1265 1264 1263 1261 1260 1259 1258 1257 1257 1257 1257 1258 1259 1260 1260 1262 1263 1264 1265
1475 1472 1470 1468 1465 1462 1460 1457 1455 1452 1449 1447 1445 1442 1439 1436 1433 1430 1427 1424 1421 1418 1416 1412 1409 1405 1402 1399 1396 1392 1389 1385 1382 1379 1376 1373 1370 1367 1362 1358 1356 1355 1351 1348 1346 1343 1340 1337 1332 1328 1324 1320 1316 1312 1309 1307 1304 1299 1294 1291 1287 1282 1278 1274 1271 1268 1267 1265 1263 1262 1260 1258 1257 1256 1255 1255 1256 1256 1257 1258 1259 1260 1260 1261 1263
1472 1469 1467 1465 1463 1460 1457 1455 1452 1450 1447 1444 1442 1439 1437 1434 1431 1428 1425 1422 1418 1415 1413 1410 1406 1403 1400 1396 1393 1390 1387 1384 1380 1376 1373 1370 1368 1367 1364 1359 1355 1353 1351 1348 1346 1343 1340 1336 1331 1328 1325 1322 1318 1315 1311 1308 1304 1298 1294 1291 1288 1284 1281 1277 1274 1271 1268 1266 1264 1263 1261 1260 1259 1258 1257 1256 1255 1256 1257 1257 1257 1258 1259 1260 1261
1469 1466 1463 1462 1460 1457 1455 1452 1449 1447 1444 1441 1439 1437 1434 1432 1429 1426 1423 1420 1416 1413 1409 1407 1404 1401 1397 1394 1391 1388 1385 1382 1378 1375 1371 1367 1363 1362 1362 1360 1356 1351 1348 1346 1344 1341 1338 1334 1330 1327 1324 1321 1318 1314 1310 1307 1303 1297 1293 1290 1287 1284 1281 1279 1276 1273 1270 1267 1266 1265 1263 1262 1261 1260 1259 1258 1258 1257 1257 1257 1257 1257 1258 1259 1261